Location: Cantaing
(50.1487°N, 3.1675°E)
Time: 08:51:04
(UTC+00:00)

USA 307 - Pass Details

Date: 14 January 2026
Orbit: 495 x 502 km, 54.0° (Epoch: 10 March)

Event Time Altitude Azimuth Distance (km) Brightness Sun altitude
Exits shadow 05:56:16 32° 309° (NW) 891 3.4 -16.2°
Maximum altitude 05:57:54 57° 14° (NNE) 599 2.9 -15.9°
Drops below altitude 10° 06:01:46 10° 94° (E) 1,663 6.6 -15.3°
Sets 06:03:53 0° 98° (E) 2,470 8.0 -15.0°
